{"data":{"norad_id":60512,"intl_designator":"2024-149AW","name":"FLOCK 4BE-13","alt_names":[],"object_type":"PAYLOAD","status":"ACTIVE","operator":null,"country":"US","launch_date":"2024-08-16","launch_site_code":"AFWTR","launch_vehicle":null,"mission":null,"orbit_class":"UNKNOWN","rcs_meters":null,"size_class":null,"mass_kg":null,"dimensions":null,"purposes":["earth_obs"],"wikipedia_slug":null,"has_3d_model":false,"image_url":null,"decayed_at":null,"tle_current":{"epoch":"2026-09-19T04:21:37.112256Z","epoch_age_seconds":132237,"freshness":"FRESH","line1":"1 60512U 24149AW  26262.18167954  .00027629  00000+0  58964-3 0  9993","line2":"2 60512  97.3666 347.7113 0002984 289.8448  70.2479 15.44846075116860","mean_motion":15.44846075,"eccentricity":0.0002984,"inclination_deg":97.3666,"raan_deg":347.7113,"arg_perigee_deg":289.8448,"mean_anomaly_deg":70.2479,"bstar":0.00058964,"rev_number":11686,"period_min":93.213170121172,"perigee_km":429.7982935748,"apogee_km":433.86248211186,"semimajor_km":6809.9673878433,"source":"CELESTRAK","updated_at":"2026-09-20T09:00:34.714890Z"}}}